Temp
69 70 71 73 73 71 70 72 72 73 72 78 75 73 77 78 76 74 77 78 79 79 78 78 78 79 80 82 81 81 79 79 78 79 79 78 77 77 77 77 77 76 73 76
69 70 71 71 73 72 72 70 71 71 72 74 76 78 77 75 75 73 75 78 79 79 79 77 79 80 81 81 80 80 79 78 78 77 77 77 77 77 76 74 73 73 69 72
64 66 69 67 69 72 72 70 68 71 69 70 71 71 72 74 75 76 77 79 78 79 80 78 79 80 80 80 80 79 78 78 77 77 76 76 76 75 75 73 72 71 70 67
65 64 56 66 71 72 67 63 65 66 66 67 68 72 74 73 73 74 77 79 80 81 81 79 79 80 81 80 78 77 77 77 77 77 76 76 75 74 74 74 72 72 65 65
61 60 62 65 64 63 63 63 63 63 66 69 72 75 70 73 72 73 76 79 80 82 81 79 81 80 79 79 78 77 77 77 77 77 76 75 72 70 71 71 70 69 67 63
58 56 54 60 64 65 65 63 65 63 64 65 70 75 76 71 70 69 74 77 79 80 79 79 79 79 77 77 77 77 78 77 77 77 75 71 70 69 70 69 70 67 66 68
60 59 59 64 64 66 58 61 64 64 64 64 65 69 71 74 70 68 68 73 79 78 75 75 75 76 76 76 76 77 77 76 75 75 74 74 73 72 72 71 70 70 68 67
57 56 54 64 65 60 61 63 63 64 63 61 65 68 70 73 73 68 65 68 71 68 66 67 68 71 72 73 73 75 73 73 73 72 73 73 72 70 70 70 69 68 68 66
56 58 61 64 62 63 63 61 63 63 65 65 65 66 68 69 72 70 69 69 71 68 65 64 63 65 65 65 69 70 70 68 67 68 68 69 68 66 66 69 70 68 66 70
57 61 63 64 64 64 64 62 64 65 65 66 64 67 67 69 71 71 69 70 70 66 63 61 63 65 65 65 66 67 67 67 69 69 69 71 72 72 72 66 65 66 65 64
61 63 63 64 64 64 63 64 65 66 65 65 65 65 66 67 68 70 70 69 70 68 65 65 66 66 66 66 67 66 66 68 69 69 68 70 70 69 69 69 65 66 65 63
60 62 62 63 64 65 63 64 65 65 65 67 66 64 64 65 68 69 70 68 69 69 68 66 67 66 66 67 68 68 68 70 72 73 73 72 71 72 53 53 48 45 45 51
62 63 63 65 65 65 63 65 66 64 65 63 65 66 63 61 63 62 67 71 65 66 68 66 66 65 67 66 69 68 68 70 70 68 73 72 72 73 72 64 47 44 43 43
64 63 64 63 63 64 64 65 64 66 65 63 63 66 64 61 62 61 60 60 61 61 62 62 63 63 67 67 68 68 70 56 73 73 74 74 73 74 75 72 72 73 50 49
66 66 65 65 64 64 65 65 64 64 64 63 66 64 66 60 59 60 61 61 60 59 58 58 58 58 62 69 69 69 72 74 74 74 74 70 74 74 74 73 72 72 73 56
66 68 67 64 64 64 65 65 64 64 64 63 63 64 61 59 58 57 58 60 59 57 57 57 57 59 63 66 68 69 72 61 62 73 75 73 74 74 74 73 72 73 73 74
63 65 65 64 63 63 63 65 66 65 63 61 63 65 61 58 59 56 55 55 55 54 55 56 56 60 65 66 68 71 73 73 59 70 71 73 73 73 72 71 72 73 74 71
65 66 66 65 64 64 64 65 65 65 64 65 66 65 64 63 59 56 57 58 58 58 58 59 61 62 63 63 63 65 68 69 69 70 72 71 71 72 72 72 72 72 72 70
66 66 66 66 65 64 63 61 62 62 62 63 64 62 62 61 61 60 61 60 58 57 57 60 57 61 61 60 61 66 66 63 65 66 66 61 69 71 71 71 72 73 72 72
64 64 66 66 66 66 65 65 64 61 62 63 62 61 60 59 60 59 59 53 52 54 56 59 61 61 59 59 59 60 60 64 64 61 61 66 70 67 68 58 66 67 68 69
63 64 64 65 65 65 66 66 65 63 62 62 61 59 58 58 59 58 55 54 55 58 60 58 60 61 61 59 61 60 57 57 57 57 57 59 62 65 65 63 65 66 65 64
59 61 61 63 63 62 63 63 63 61 60 59 59 58 55 55 54 55 55 54 57 51 60 61 56 55 57 58 61 58 56 56 56 58 57 57 57 57 58 58 58 57 59 58
61 61 62 62 61 60 61 61 61 60 59 58 57 53 53 53 54 54 53 57 60 54 61 57 52 53 54 59 61 62 59 57 57 56 55 55 56 57 58 60 62 62 61 61
61 62 62 61 61 60 58 58 59 59 59 57 56 57 56 56 56 60 61 53 49 54 58 57 53 52 54 57 56 57 59 55 59 62 59 50 55 56 59 62 63 63 63 61
60 60 60 60 55 55 57 56 59 59 59 58 58 59 59 61 61 60 61 60 48 58 61 50 50 52 62 58 55 56 56 57 62 64 63 63 64 63 63 63 62 62 63 63
59 60 58 58 57 57 57 61 63 62 62 60 61 62 62 62 61 62 61 56 60 55 60 61 62 64 63 63 63 62 63 63 64 63 63 63 64 64 64 64 64 63 62 63
59 50 58 56 59 62 58 63 63 62 62 63 61 63 63 63 61 60 54 62 63 62 62 63 65 61 65 65 64 65 66 64 54 63 63 63 63 63 63 64 64 66 66 64
MSLP
1004.26 1004.03 1003.76 1003.31 1003.23 1003.61 1003.81 1003.67 1003.18 1003.16 1003.46 1003.62 1004.32 1004.72 1004.69 1005.01 1005.67 1006.10 1005.94 1006.10 1006.37 1006.66 1007.13 1007.80 1008.27 1008.74 1009.19 1009.57 1010.03 1010.26 1010.71 1011.07 1011.52 1012.00 1012.46 1012.71 1013.05 1013.23 1013.42 1013.59 1014.00 1014.27 1014.35 1014.20
1004.44 1004.32 1004.06 1003.65 1003.79 1004.09 1004.31 1004.38 1004.50 1004.63 1004.60 1005.32 1004.98 1004.92 1005.14 1005.45 1005.62 1005.57 1005.75 1005.73 1005.87 1006.34 1006.85 1007.56 1007.89 1008.22 1008.84 1009.20 1009.72 1010.24 1010.68 1011.12 1011.57 1011.89 1012.38 1012.61 1012.96 1013.13 1013.31 1013.57 1013.66 1013.98 1014.27 1014.31
1005.01 1005.02 1004.50 1004.47 1004.68 1004.60 1004.91 1005.54 1005.87 1005.70 1006.26 1006.09 1005.42 1005.27 1005.66 1005.79 1005.79 1005.59 1005.58 1005.68 1006.08 1006.33 1006.34 1006.73 1007.30 1007.59 1008.00 1008.89 1009.62 1010.28 1010.73 1011.26 1011.66 1011.67 1011.97 1012.36 1012.75 1013.02 1013.29 1013.57 1013.94 1014.10 1014.18 1014.54
1005.88 1005.77 1005.47 1005.81 1006.09 1005.84 1006.23 1007.20 1007.53 1007.40 1007.56 1007.35 1006.81 1006.54 1006.44 1006.47 1006.34 1005.86 1005.51 1005.33 1005.46 1005.73 1006.13 1006.44 1007.07 1007.92 1008.45 1009.10 1009.55 1010.13 1010.75 1011.10 1011.45 1011.59 1011.80 1012.20 1012.61 1012.88 1013.11 1013.40 1013.63 1013.94 1014.33 1014.45
1006.76 1006.40 1006.47 1006.66 1007.38 1007.77 1007.77 1008.36 1008.69 1008.62 1008.27 1007.94 1007.06 1006.13 1006.55 1006.91 1006.80 1006.24 1005.80 1005.59 1005.49 1005.57 1005.61 1006.05 1006.68 1007.48 1008.46 1009.14 1009.68 1010.36 1010.74 1011.15 1011.32 1011.48 1011.74 1012.07 1012.47 1012.76 1013.02 1013.14 1013.42 1013.72 1014.21 1014.43
1007.86 1007.15 1007.00 1007.96 1008.64 1009.18 1009.28 1008.97 1009.38 1009.47 1009.04 1008.62 1007.68 1006.23 1006.33 1007.14 1007.14 1006.84 1006.27 1005.93 1005.82 1005.74 1005.75 1005.98 1006.87 1007.77 1008.28 1009.02 1009.81 1010.22 1010.50 1010.72 1010.92 1011.17 1011.40 1011.88 1012.26 1012.65 1012.81 1013.03 1013.12 1013.45 1013.74 1014.09
1008.10 1008.08 1008.48 1009.03 1009.53 1009.73 1009.97 1010.25 1010.05 1010.18 1010.10 1009.67 1008.97 1008.58 1008.03 1007.64 1007.57 1007.43 1007.05 1006.31 1005.94 1006.00 1006.37 1007.02 1007.82 1008.51 1009.12 1009.42 1009.42 1009.75 1010.32 1010.86 1011.05 1011.33 1011.48 1011.84 1012.23 1012.59 1012.66 1012.75 1012.86 1012.92 1013.22 1013.56
1009.23 1009.04 1009.46 1010.09 1010.11 1010.68 1011.14 1010.77 1010.91 1010.74 1010.88 1010.38 1009.67 1008.94 1008.50 1008.11 1007.74 1007.39 1007.41 1007.05 1006.82 1007.18 1007.84 1008.82 1009.38 1009.98 1010.07 1010.54 1010.34 1010.20 1010.07 1010.86 1011.28 1011.58 1011.93 1012.27 1012.42 1012.65 1012.68 1012.77 1012.56 1012.58 1012.95 1013.07
1010.40 1010.18 1010.46 1010.81 1011.17 1011.72 1012.02 1011.92 1011.49 1011.39 1011.06 1010.55 1009.89 1009.26 1008.79 1008.45 1008.04 1007.89 1007.41 1007.23 1007.10 1007.22 1007.76 1008.28 1008.57 1007.82 1012.55 1011.88 1011.33 1011.09 1010.82 1011.50 1011.60 1011.99 1012.57 1012.65 1012.78 1012.77 1012.73 1012.79 1012.64 1012.67 1012.74 1012.82
1010.80 1010.67 1010.73 1010.94 1011.41 1011.94 1012.17 1012.19 1011.94 1011.64 1011.22 1010.78 1010.19 1009.62 1008.95 1008.51 1008.07 1007.80 1007.67 1007.48 1006.97 1006.92 1006.72 1007.14 1007.27 1006.62 1008.66 1011.67 1011.09 1011.30 1011.79 1011.94 1011.73 1012.11 1012.46 1012.45 1012.93 1012.74 1012.51 1012.71 1012.48 1012.68 1012.86 1012.96
1010.74 1010.79 1011.01 1011.27 1011.54 1011.86 1012.09 1012.14 1011.86 1011.52 1011.19 1010.90 1010.48 1009.99 1009.31 1008.58 1008.09 1007.76 1007.37 1007.43 1007.38 1006.49 1005.95 1006.21 1006.37 1006.55 1007.12 1008.99 1009.94 1010.41 1011.78 1011.75 1011.81 1011.98 1012.38 1012.61 1012.82 1012.92 1012.55 1012.50 1012.41 1012.83 1013.07 1013.06
1010.59 1011.04 1011.19 1011.34 1011.78 1011.90 1011.94 1011.85 1011.68 1011.39 1010.99 1010.70 1010.49 1010.10 1009.70 1008.93 1008.15 1007.65 1007.26 1007.16 1007.16 1007.00 1006.85 1006.93 1007.45 1008.42 1009.11 1009.18 1008.67 1008.98 1011.35 1011.62 1011.57 1011.71 1011.97 1012.40 1012.24 1012.32 1012.30 1012.74 1012.80 1013.19 1013.42 1013.67
1011.19 1011.49 1011.54 1011.65 1011.78 1011.78 1011.84 1011.71 1011.54 1011.37 1011.18 1010.91 1010.48 1010.08 1009.79 1009.42 1008.60 1007.97 1007.55 1007.07 1007.31 1007.28 1007.29 1007.61 1008.00 1008.56 1009.08 1009.35 1009.46 1010.05 1010.49 1011.16 1011.73 1011.90 1011.78 1011.81 1011.53 1011.69 1011.54 1012.33 1012.33 1012.85 1013.29 1013.67
1011.57 1011.69 1011.46 1011.76 1011.84 1011.98 1011.90 1011.62 1011.54 1011.39 1011.30 1011.18 1010.70 1010.29 1010.10 1009.91 1009.53 1009.06 1008.75 1008.53 1008.20 1008.04 1007.71 1008.08 1009.16 1009.81 1009.58 1009.67 1009.91 1010.60 1010.79 1011.10 1011.53 1011.42 1011.35 1011.34 1011.08 1011.04 1011.13 1011.56 1011.46 1011.84 1012.18 1012.73
1011.47 1011.66 1011.70 1011.87 1011.91 1011.66 1011.66 1011.48 1011.29 1011.19 1011.17 1011.12 1010.95 1010.82 1010.43 1010.56 1010.29 1010.17 1009.88 1009.86 1009.72 1008.74 1008.87 1010.00 1010.77 1011.19 1010.79 1010.70 1010.54 1010.50 1010.89 1010.93 1011.26 1011.17 1011.10 1011.13 1011.01 1010.77 1010.82 1010.99 1010.75 1010.91 1010.77 1011.79
1011.53 1011.46 1011.42 1011.46 1011.41 1011.43 1011.30 1011.16 1010.96 1011.06 1011.10 1011.02 1011.04 1011.09 1011.22 1011.16 1011.18 1011.34 1011.28 1011.03 1010.87 1011.32 1011.33 1011.66 1012.07 1012.10 1011.58 1011.02 1010.99 1010.92 1010.97 1011.12 1011.06 1010.80 1010.49 1010.66 1010.67 1010.48 1010.39 1010.29 1010.31 1010.15 1010.12 1010.35
1011.59 1011.18 1011.22 1011.23 1011.43 1011.52 1011.49 1011.37 1011.12 1011.19 1011.30 1011.40 1011.47 1011.56 1011.82 1011.94 1011.98 1011.95 1012.39 1012.45 1012.58 1012.66 1012.77 1012.86 1012.81 1012.47 1012.16 1011.85 1011.32 1011.27 1011.02 1010.94 1011.01 1010.75 1010.61 1010.53 1010.34 1010.18 1009.84 1009.75 1009.63 1009.52 1009.57 1010.02
1011.79 1011.73 1011.74 1011.62 1011.73 1011.71 1011.67 1011.67 1011.64 1011.71 1011.88 1012.09 1012.09 1012.18 1012.35 1012.37 1012.61 1013.00 1013.33 1013.36 1013.20 1013.10 1013.24 1013.26 1013.06 1012.77 1012.26 1012.12 1012.17 1012.01 1011.34 1010.97 1010.95 1010.88 1010.83 1010.88 1010.65 1009.98 1009.50 1009.53 1009.44 1009.45 1009.67 1010.32
1011.95 1011.88 1012.02 1011.91 1011.96 1012.00 1012.11 1012.34 1012.31 1012.37 1012.61 1012.82 1012.72 1012.72 1012.97 1013.27 1013.41 1013.49 1013.61 1013.54 1013.45 1013.36 1013.61 1013.35 1013.22 1012.69 1012.50 1012.58 1012.34 1011.61 1011.45 1011.41 1011.34 1011.42 1011.18 1010.88 1010.23 1010.12 1009.91 1009.40 1009.16 1009.36 1009.75 1010.06
1012.35 1012.41 1012.24 1012.24 1012.33 1012.27 1012.39 1012.54 1012.69 1012.57 1012.93 1013.30 1013.36 1013.31 1013.45 1013.68 1013.75 1013.76 1013.82 1013.99 1014.18 1014.22 1014.00 1013.57 1013.21 1012.87 1012.83 1012.77 1012.60 1012.45 1012.36 1011.81 1011.65 1011.54 1011.13 1010.56 1010.14 1010.09 1010.03 1010.20 1010.10 1010.23 1010.45 1010.56
1012.73 1012.65 1012.57 1012.65 1012.86 1012.90 1012.86 1012.96 1013.04 1013.24 1013.51 1013.67 1013.75 1013.94 1014.07 1014.23 1014.38 1014.40 1014.45 1014.48 1014.55 1014.40 1014.10 1014.07 1013.87 1013.40 1013.20 1012.97 1012.51 1012.18 1012.10 1011.91 1011.72 1011.68 1011.35 1011.00 1010.71 1010.43 1010.45 1010.67 1010.84 1010.94 1011.33 1011.58
1013.60 1013.11 1013.09 1013.14 1013.38 1013.57 1013.62 1013.77 1013.91 1014.02 1014.17 1014.29 1014.38 1014.46 1014.63 1014.62 1014.66 1014.76 1014.89 1014.80 1014.56 1014.74 1014.17 1014.17 1014.29 1014.12 1013.59 1012.89 1012.51 1012.40 1012.30 1012.12 1012.03 1012.02 1011.85 1011.77 1011.75 1011.67 1011.90 1012.10 1012.15 1012.27 1012.56 1012.83
1014.11 1013.76 1013.48 1013.36 1013.63 1013.94 1014.17 1014.24 1014.31 1014.39 1014.50 1014.64 1014.73 1015.08 1015.04 1014.96 1014.76 1014.72 1014.77 1014.95 1014.71 1014.82 1014.25 1014.70 1014.64 1014.05 1013.53 1013.14 1012.82 1012.68 1012.90 1012.91 1013.08 1012.95 1012.93 1012.93 1012.88 1012.72 1012.76 1012.52 1012.45 1012.86 1012.75 1012.98
1014.12 1013.94 1013.81 1013.80 1014.00 1014.23 1014.41 1014.68 1014.79 1014.91 1015.03 1015.18 1015.25 1015.27 1015.12 1015.02 1015.15 1014.99 1015.00 1015.25 1015.17 1014.85 1014.86 1014.93 1014.90 1014.60 1014.17 1014.21 1014.39 1013.98 1013.66 1013.91 1013.58 1013.29 1013.34 1013.52 1013.38 1013.26 1013.41 1013.19 1012.71 1013.21 1013.47 1013.49
1014.35 1014.17 1014.04 1014.03 1014.27 1014.52 1014.76 1014.97 1014.91 1015.01 1015.15 1015.24 1015.40 1015.41 1015.33 1015.11 1014.86 1015.30 1015.27 1015.48 1015.56 1015.03 1015.25 1015.53 1015.14 1014.68 1014.39 1014.52 1014.75 1014.61 1014.75 1014.71 1013.98 1013.99 1013.86 1014.16 1013.87 1013.40 1013.26 1012.97 1013.34 1013.87 1013.82 1013.64
1014.31 1014.16 1014.21 1014.24 1014.29 1014.48 1014.68 1014.65 1014.46 1014.70 1014.78 1014.91 1015.18 1015.21 1015.22 1015.46 1015.57 1015.52 1015.76 1015.83 1015.64 1015.42 1015.23 1015.32 1015.15 1014.72 1014.81 1014.63 1014.52 1014.75 1014.66 1014.77 1014.40 1014.52 1013.97 1013.98 1014.12 1013.99 1014.06 1014.02 1013.96 1013.68 1014.43 1014.85
1014.31 1014.58 1014.39 1014.53 1014.41 1014.37 1014.57 1014.33 1014.36 1014.44 1014.70 1014.72 1014.94 1015.13 1015.19 1015.40 1015.47 1015.40 1015.57 1015.35 1015.24 1015.16 1015.02 1015.09 1015.02 1015.11 1015.06 1014.84 1014.77 1015.07 1015.17 1014.55 1014.71 1014.68 1014.31 1014.35 1014.43 1014.02 1014.17 1014.48 1014.45 1014.61 1014.43 1014.34
Wind_Speed
1 3 3 3 10 12 8 2 6 7 7 8 13 10 10 6 6 8 9 10 10 11 9 9 9 10 9 9 10 10 9 9 9 9 9 8 8 7 6 6 5 5 5 6
1 1 2 1 2 3 5 2 3 4 2 11 11 9 9 4 8 12 14 14 12 11 9 11 12 11 10 11 10 9 9 9 9 9 9 8 8 8 8 7 7 6 4 6
2 6 2 4 3 2 4 6 4 1 5 15 15 14 13 11 8 12 14 12 11 11 11 12 13 13 13 11 10 8 7 8 10 10 9 9 8 7 8 9 6 7 7 4
1 0 6 5 7 4 12 7 6 4 8 11 13 12 8 12 8 8 10 11 10 10 9 11 10 9 9 10 10 9 9 9 10 9 10 8 7 8 9 7 8 6 3 4
4 4 2 3 5 4 3 3 6 8 9 12 15 9 4 15 14 12 9 8 5 6 9 10 11 11 11 10 10 9 9 9 9 9 9 7 8 7 7 5 5 6 4 5
2 4 7 4 5 3 3 4 4 6 9 13 15 6 6 16 13 13 12 4 5 6 8 11 11 11 10 10 10 9 9 8 7 8 7 7 7 7 5 4 5 3 5 5
6 6 2 5 9 1 7 3 6 6 9 10 8 7 14 11 8 7 8 6 5 6 6 5 8 9 9 10 10 8 7 5 5 4 5 5 6 5 5 6 5 5 4 3
2 4 6 7 1 4 6 5 7 8 9 11 13 15 14 12 8 4 3 5 7 13 12 12 11 7 4 5 5 6 9 7 6 5 4 4 5 4 3 5 5 5 4 3
3 3 2 2 3 3 5 9 11 12 12 13 15 15 16 14 11 5 4 5 13 15 16 11 12 16 8 5 3 4 8 6 7 6 3 4 4 4 3 3 2 1 2 4
2 1 3 3 3 2 6 9 11 12 13 13 16 17 19 16 11 8 8 8 12 15 13 14 14 17 17 7 6 4 3 6 7 6 4 3 3 3 3 3 2 2 3 4
2 2 1 1 3 4 8 7 8 10 10 12 13 15 17 16 14 10 9 10 12 8 10 12 12 15 19 17 12 11 5 5 5 4 5 4 2 2 1 1 2 0 2 2
0 2 1 1 1 6 6 5 8 11 14 13 12 12 15 13 12 10 10 7 8 9 4 9 9 10 7 6 9 14 8 5 4 4 5 5 3 3 5 4 0 3 4 4
2 2 4 6 6 4 5 6 10 12 10 11 10 8 9 12 10 8 8 11 4 8 8 9 9 9 7 6 8 7 8 6 4 5 5 4 3 1 2 4 8 9 8 9
2 3 4 2 3 6 7 10 8 8 5 5 7 8 6 9 11 12 11 11 14 7 10 12 9 6 5 7 7 5 5 4 5 4 3 3 3 2 1 3 3 3 10 10
5 5 8 7 8 9 7 7 6 4 4 5 6 7 7 7 9 10 10 11 11 15 15 14 10 8 7 1 4 6 4 4 4 3 4 3 3 3 4 4 4 4 3 6
7 5 5 5 7 6 6 6 4 5 5 4 6 8 9 8 9 10 10 9 10 10 10 9 7 7 7 2 3 2 4 3 5 5 5 5 6 6 5 5 5 4 4 4
6 5 6 5 5 5 5 6 6 7 8 6 7 9 12 10 11 11 9 9 8 9 7 6 3 3 5 6 5 2 1 1 3 3 4 5 6 7 6 6 5 4 4 4
3 1 1 3 3 4 7 8 8 9 9 7 8 9 9 9 8 6 4 3 5 7 7 5 5 6 5 5 6 5 5 3 3 4 4 4 4 4 4 5 5 5 4 3
2 4 0 3 5 5 7 7 7 8 8 5 5 8 7 6 5 5 4 5 6 5 7 6 7 4 5 5 6 4 4 4 4 4 4 4 4 3 3 3 3 3 4 4
5 4 5 6 5 5 7 6 6 8 7 3 3 5 6 6 5 5 6 8 5 3 4 6 5 6 5 5 3 2 1 1 2 3 3 4 2 4 5 6 6 6 6 6
5 5 6 5 4 5 5 4 5 6 6 6 5 5 5 6 6 5 5 4 6 6 5 4 6 4 5 4 4 5 5 5 4 4 5 6 7 8 9 8 9 9 9 9
4 5 5 5 3 4 5 5 5 5 5 5 5 6 6 6 6 5 6 5 4 8 5 6 5 8 6 9 7 8 7 7 7 7 8 8 8 8 9 10 10 8 8 8
6 5 2 3 5 5 5 4 4 5 5 5 5 6 5 3 4 4 5 7 5 6 6 7 8 10 11 9 8 9 10 10 9 9 9 9 9 9 9 9 9 9 9 9
5 5 3 3 7 6 5 4 4 5 5 6 5 4 3 3 4 4 5 4 6 7 8 7 8 10 7 7 7 7 8 8 8 9 10 8 8 9 8 9 9 8 8 8
4 3 1 5 4 3 5 4 5 5 5 5 5 5 5 4 5 4 4 5 6 4 6 7 7 5 7 7 6 7 7 7 8 9 9 8 8 8 9 9 9 8 9 9
3 1 1 4 3 4 4 4 3 4 4 5 4 4 4 4 4 3 3 3 4 4 5 5 6 7 7 7 7 6 6 5 7 7 7 7 8 8 8 8 8 8 7 6
3 2 3 3 4 5 4 4 4 5 4 5 5 4 4 3 3 2 2 2 2 3 3 3 3 4 4 4 4 3 2 4 5 4 5 5 5 6 5 4 4 2 2 4
Wind_Direction
204 241 276 253 188 173 199 239 220 163 211 357 2 352 331 247 224 223 212 211 212 211 204 197 189 188 195 191 184 173 178 183 186 188 198 194 201 206 197 196 208 209 194 183
168 37 336 359 119 160 227 164 287 6 82 10 334 351 360 302 231 214 225 224 218 211 190 192 193 191 189 186 182 175 180 191 190 187 196 196 203 201 203 212 202 197 202 202
262 1 319 227 11 255 120 78 334 203 4 335 328 343 357 341 298 256 238 238 227 220 201 185 192 190 188 185 165 174 183 195 194 190 194 204 205 210 220 217 203 210 198 199
308 296 231 73 32 24 113 75 29 338 336 329 310 315 9 17 344 325 283 253 223 207 196 187 178 188 177 173 165 174 187 193 194 195 198 202 208 228 232 228 227 231 206 197
239 216 5 140 29 14 354 110 11 330 337 339 328 307 144 10 358 340 307 277 231 209 191 171 176 165 174 169 170 181 188 198 197 201 205 194 212 224 225 224 218 208 235 194
176 226 226 75 3 354 278 205 358 337 335 342 342 331 26 356 348 340 336 315 209 188 175 160 162 164 156 166 177 193 190 194 193 197 195 198 198 197 183 207 214 174 197 217
213 249 110 349 333 257 205 73 347 349 327 314 320 321 312 327 351 354 341 334 218 174 156 135 129 141 159 170 178 165 152 164 163 175 172 172 175 182 180 192 193 193 204 194
159 213 215 18 200 283 10 339 333 341 334 320 312 313 312 321 339 30 356 58 94 93 80 63 52 5 132 140 126 140 127 132 125 126 148 174 179 167 188 202 188 180 188 191
271 53 38 22 59 59 352 310 311 309 304 311 309 316 326 328 319 318 230 151 124 115 116 102 93 78 338 340 22 99 104 114 114 121 149 164 166 172 172 197 188 175 208 241
227 133 281 278 205 282 313 306 313 307 300 307 311 312 313 316 312 277 239 190 164 151 149 156 165 140 146 240 154 106 156 164 143 156 175 175 214 229 199 199 187 245 238 243
237 232 286 121 225 298 319 322 339 340 332 321 319 325 327 318 308 289 263 234 234 230 173 170 157 153 154 173 166 139 189 180 165 171 199 193 199 245 131 38 65 103 252 254
85 131 273 321 222 308 304 338 339 337 335 326 320 322 334 332 327 302 273 233 220 239 175 139 138 143 154 153 140 138 183 191 183 183 192 203 191 176 178 264 134 286 294 259
19 47 275 307 310 307 297 312 333 331 342 347 347 344 341 358 8 358 311 259 211 219 193 151 130 124 123 114 131 138 152 149 171 218 198 192 152 159 75 182 212 222 238 248
227 268 273 170 351 326 298 302 312 323 340 3 357 5 29 23 40 28 34 51 52 39 98 69 56 56 101 110 121 133 146 120 192 190 193 193 184 194 229 260 294 268 199 222
259 242 287 298 283 289 301 296 298 355 2 20 26 20 28 46 40 46 47 47 52 68 53 48 38 19 357 202 169 160 185 186 211 224 228 251 244 235 246 251 260 269 275 197
333 311 301 300 315 324 335 351 347 42 18 40 33 42 66 60 54 45 36 33 67 52 60 68 44 8 13 52 214 227 233 242 260 251 249 244 243 248 250 253 263 281 300 336
294 337 348 26 52 38 26 29 50 70 65 71 63 68 82 73 76 67 49 50 59 62 54 46 24 348 5 22 25 7 315 315 344 290 277 267 265 256 259 266 271 282 302 35
218 336 54 82 76 78 94 77 74 70 67 71 78 81 78 76 84 82 70 85 93 78 49 29 4 347 6 4 348 316 320 332 342 312 307 280 287 279 274 275 281 304 318 34
146 171 117 82 116 97 82 77 79 88 77 43 65 70 62 60 74 87 75 55 37 34 17 6 1 24 24 4 317 298 292 284 265 262 260 271 278 320 323 344 356 16 20 19
83 75 102 98 121 117 114 109 101 77 70 55 52 59 65 55 36 27 44 55 42 11 333 359 0 34 26 36 42 56 295 280 325 337 345 315 8 38 63 61 46 48 38 39
81 88 89 97 110 104 88 76 84 74 55 38 33 48 56 58 54 70 79 68 36 25 21 42 31 22 37 35 45 61 50 53 53 48 48 59 71 69 69 62 58 53 48 42
360 71 86 104 121 98 82 80 77 82 76 72 68 62 68 79 69 65 52 29 23 359 27 46 40 47 54 66 65 64 57 58 59 66 67 64 65 66 68 66 61 56 55 52
340 350 27 131 150 125 109 86 73 70 77 70 79 89 85 64 35 31 29 19 29 17 53 54 51 51 48 56 63 65 59 56 58 58 58 58 60 67 67 63 67 58 55 60
315 332 314 142 141 146 142 125 94 86 95 88 87 111 120 100 74 59 82 71 51 41 48 37 58 65 58 62 50 50 60 60 61 70 79 76 78 76 74 62 61 51 43 34
273 313 197 154 150 157 146 136 133 120 120 108 104 98 84 63 68 71 69 74 45 48 70 52 42 50 71 75 66 70 67 59 59 74 71 63 65 68 66 65 58 44 46 41
257 271 230 229 204 174 161 171 138 128 126 112 101 99 98 102 106 112 101 89 82 77 64 50 46 67 72 71 77 69 73 76 66 57 66 64 58 53 48 46 48 55 45 38
228 257 184 187 178 185 174 186 161 138 140 120 115 120 113 116 114 131 126 106 73 66 68 58 46 52 52 55 78 80 71 72 46 35 55 49 37 41 40 33 31 26 29 34